St. Petersburg, FL

5:36 PM EDT on October 23, 2017 (GMT -0400)
Whitted

Weather History for KSPG - December, 2010

Change the Weather History Date:

Tuesday, December 21, 2010

  Actual Average Record
Temperature  
Mean Temperature 58 °F -  
Max Temperature 64 °F 71 °F 81 °F (1956)
Min Temperature 52 °F 56 °F 40 °F (1954)
Degree Days  
Heating Degree Days 7    
Growing Degree Days 8 (Base 50)    
Moisture  
Dew Point 46 °F    
Average Humidity 68    
Maximum Humidity 77    
Minimum Humidity 50    
Precipitation  
Precipitation 0.00 in - - ()
Sea Level Pressure  
Sea Level Pressure 30.16 in    
Wind  
Wind Speed 6 mph (ENE)    
Max Wind Speed 12 mph    
Max Gust Speed -    
Visibility 10 miles    
Events      
Averages and records for this station are not official NWS values.
T = Trace of Precipitation, MM = Missing Value Source: NWS Daily Summary

Daily Weather History Graph

Daily Weather History Graph

Search for Another Location

Airport or City:

Trip Planner

Search our weather history database for the weather conditions in past years. The results will help you decide how hot, cold, wet, or windy it might be!

Date:

Astronomy

Dec. 21, 2010 Rise Set
Actual Time 7:17 AM EST 5:40 PM EST
Civil Twilight 6:51 AM EST 6:05 PM EST
Nautical Twilight 6:22 AM EST 6:35 PM EST
Astronomical Twilight 5:53 AM EST 7:03 PM EST
Moon 6:12 PM EST (12/21) 7:30 AM EST (12/21)
Length of Visible Light 11h 14m
Length of Day
10h 23m
Full, 100% of the Moon is Illuminated
Dec 21
Full
Dec 27
Last Quarter
Jan 4
New
Jan 12
First Quarter
Jan 19
Full

Hourly Weather History & Observations

Time (EST) Temp. Dew Point Humidity Pressure Visibility Wind Dir Wind Speed Gust Speed Precip Events Conditions
12:53 AM 53.1 °F 44.1 °F 71% 30.16 in 10.0 mi East 11.5 mph - N/A   Clear
1:53 AM 52.0 °F 43.0 °F 71% 30.15 in 10.0 mi East 11.5 mph - N/A   Clear
2:53 AM 52.0 °F 43.0 °F 71% 30.15 in 10.0 mi East 9.2 mph - N/A   Clear
3:53 AM 52.0 °F 43.0 °F 71% 30.14 in 10.0 mi East 9.2 mph - N/A   Clear
4:53 AM 52.0 °F 43.0 °F 71% 30.14 in 10.0 mi ENE 6.9 mph - N/A   Clear
5:53 AM 52.0 °F 44.1 °F 74% 30.14 in 10.0 mi East 5.8 mph - N/A   Clear
6:53 AM 52.0 °F 44.1 °F 74% 30.15 in 10.0 mi East 8.1 mph - N/A   Clear
7:53 AM 52.0 °F 45.0 °F 77% 30.16 in 10.0 mi East 3.5 mph - N/A   Clear
8:53 AM 54.0 °F 45.0 °F 72% 30.17 in 10.0 mi Calm Calm - N/A   Clear
9:53 AM 55.9 °F 46.0 °F 69% 30.19 in 10.0 mi ENE 4.6 mph - N/A   Clear
10:53 AM 57.9 °F 46.0 °F 65% 30.20 in 10.0 mi Calm Calm - N/A   Clear
11:53 AM 61.0 °F 46.9 °F 60% 30.19 in 10.0 mi ENE 3.5 mph - N/A   Clear
12:53 PM 61.0 °F 50.0 °F 67% 30.16 in 10.0 mi East 5.8 mph - N/A   Clear
1:53 PM 61.0 °F 51.1 °F 70% 30.14 in 10.0 mi East 4.6 mph - N/A   Overcast
2:53 PM 64.0 °F 45.0 °F 50% 30.13 in 10.0 mi Calm Calm - N/A   Overcast
3:53 PM 64.0 °F 45.0 °F 50% 30.14 in 10.0 mi NW 5.8 mph - N/A   Mostly Cloudy
4:53 PM 64.0 °F 46.9 °F 54% 30.14 in 10.0 mi WNW 3.5 mph - N/A   Overcast
5:53 PM 59.0 °F 50.0 °F 72% 30.16 in 10.0 mi Calm Calm - N/A   Mostly Cloudy
6:53 PM 60.1 °F 50.0 °F 69% 30.17 in 10.0 mi Calm Calm - N/A   Overcast
7:53 PM 60.1 °F 48.0 °F 64% 30.17 in 10.0 mi Calm Calm - N/A   Scattered Clouds
8:53 PM 59.0 °F 46.9 °F 64% 30.17 in 10.0 mi Calm Calm - N/A   Clear
9:53 PM 57.0 °F 48.9 °F 74% 30.16 in 10.0 mi Calm Calm - N/A   Clear
10:53 PM 55.9 °F 48.9 °F 77% 30.15 in 10.0 mi Calm Calm - N/A   Clear
11:53 PM 55.0 °F 46.9 °F 74% 30.15 in 10.0 mi Calm Calm - N/A   Clear